| ID | Machine | Gebeurtenis | Tijd | Uren | Service | Status | USB ID | |
|---|---|---|---|---|---|---|---|---|
| 272521 | 200-065XASB-S5 | Generator Over Current Warning | 12-12-2024 17:32:11 | 457 | 500 | Service nodig! | 672CE8AFF0 | |
| 272502 | 200-065XASB-S5 | SCR Inducement Warning | 12-12-2024 15:17:16 | 455 | 500 | Service nodig! | 672CE8AFF0 | |
| 272501 | 200-065XASB-S5 | ECU Amber Warning | 12-12-2024 15:16:10 | 455 | 500 | Service nodig! | 672CE8AFF0 | |
| 272494 | 200-065XASB-S5 | Engine Start | 12-12-2024 14:59:50 | 454 | 500 | Service nodig! | 672CE8AFF0 | |
| 272428 | 200-065XASB-S5 | Engine Stopped | 12-12-2024 09:19:08 | 454 | 500 | Service nodig! | 672CE8AFF0 | |
| 272426 | 200-065XASB-S5 | Engine Start | 12-12-2024 09:17:17 | 454 | 500 | Service nodig! | 672CE8AFF0 | |
| 272424 | 200-065XASB-S5 | Engine Stopped | 12-12-2024 09:12:48 | 454 | 500 | Service nodig! | 672CE8AFF0 | |
| 272421 | 200-065XASB-S5 | Engine Start | 12-12-2024 09:09:12 | 454 | 500 | Service nodig! | 672CE8AFF0 | |
| 272422 | 200-065XASB-S5 | Engine Stopped | 12-12-2024 09:09:01 | 454 | 500 | Service nodig! | 672CE8AFF0 | |
| 272419 | 200-065XASB-S5 | Engine Start | 12-12-2024 09:06:26 | 454 | 500 | Service nodig! | 672CE8AFF0 | |
| 272418 | 200-065XASB-S5 | Engine Stopped | 12-12-2024 09:05:30 | 454 | 500 | Service nodig! | 672CE8AFF0 | |
| 272417 | 200-065XASB-S5 | Engine Start | 12-12-2024 09:02:28 | 454 | 500 | Service nodig! | 672CE8AFF0 | |
| 272416 | 200-065XASB-S5 | Engine Stopped | 12-12-2024 08:59:31 | 454 | 500 | Service nodig! | 672CE8AFF0 | |
| 272413 | 200-065XASB-S5 | Engine Start | 12-12-2024 08:56:28 | 454 | 500 | Service nodig! | 672CE8AFF0 | |
| 272414 | 200-065XASB-S5 | Engine Stopped | 12-12-2024 08:56:08 | 454 | 500 | Service nodig! | 672CE8AFF0 | |
| 272411 | 200-065XASB-S5 | Engine Start | 12-12-2024 08:51:16 | 454 | 500 | Service nodig! | 672CE8AFF0 | |
| 272410 | 200-065XASB-S5 | Engine Stopped | 12-12-2024 08:48:55 | 454 | 500 | Service nodig! | 672CE8AFF0 | |
| 272409 | 200-065XASB-S5 | Engine Start | 12-12-2024 08:47:18 | 454 | 500 | Service nodig! | 672CE8AFF0 | |
| 272408 | 200-065XASB-S5 | Engine Stopped | 12-12-2024 08:41:32 | 454 | 500 | Service nodig! | 672CE8AFF0 | |
| 272407 | 200-065XASB-S5 | Engine Start | 12-12-2024 08:39:47 | 454 | 500 | Service nodig! | 672CE8AFF0 | |
| 272176 | 200-065XASB-S5 | Power Door Open Electrical Trip | 11-12-2024 14:51:16 | 454 | 500 | Service nodig! | 672CE8AFF0 | |
| 272171 | 200-065XASB-S5 | Engine Stopped | 11-12-2024 14:46:46 | 454 | 500 | Service nodig! | 672CE8AFF0 | |
| 272172 | 200-065XASB-S5 | Generator Under Volts Shutdown | 11-12-2024 14:46:35 | 454 | 500 | Service nodig! | 672CE8AFF0 | |
| 272169 | 200-065XASB-S5 | Engine Start | 11-12-2024 14:42:01 | 454 | 500 | Service nodig! | 672CE8AFF0 | |
| 272165 | 200-065XASB-S5 | Engine Stopped | 11-12-2024 14:26:30 | 454 | 500 | Service nodig! | 672CE8AFF0 |